Location: *
(28.3744°N, 81.5492°W)
Time: 03:17:17
(UTC+00:00)

Cosmos 1782 - Pass Details

Date: 15 June 2025
Orbit: 479 x 487 km, 82.5° (Epoch: 11 July)

Event Time Altitude Azimuth Distance (km) Brightness Sun altitude
Rises 09:44:07 0° 342° (NNW) 2,537 6.4 -9.3°
Reaches altitude 10° 09:46:20 10° 333° (NNW) 1,656 5.3 -8.9°
Maximum altitude 09:49:37 33° 268° (W) 826 3.3 -8.3°
Drops below altitude 10° 09:52:53 10° 203° (SSW) 1,651 4.8 -7.7°
Enters shadow 09:54:47 - 194° (SSW) 2,400 5.7 -7.3°
